THORAD DELTA 1 DEB, 8161

Orbit data source: Space-Track

THORAD DELTA 1 DEB, 8161 is space debris in LEO originally from a launch on Fri, 15 Nov 1974 UTC launched from the Air Force Western Test Range (AFWTR). Debris objects in space refer to the collection of defunct objects orbiting the Earth. Examples of debris include non-operational satellites, rocket bodies, and fragments generated from explosions, collisions, or faulty payload assembly.

Loading next visibility...
Identifier
8161, 1974-089AB
Orbit
LEO
Country
Flag of USUS
Related business
Manufacturer
Unknown
Mission
Spacecraft
Bus & Motor
Unknown
Mass
Unknown
Launch date (UTC)
1974-11-15 (52 years ago)
Launch vehicle
Unknown
Launch site
Air Force Western Test Range (AFWTR)
Object type
Payload
Rocket body
Debris
Shape & HBR
Unknown shape, 0.1 m
Radar Cross Section
Medium (>0.1 m² and <1 m²)

Expand to show TLE details & history
Last TLE update: 16 hours ago

TLE from 16 hours ago
0 THORAD DELTA 1 DEB
1 08161U 74089AB  26207.59999870  .00000617  00000-0  65899-2 0  9990
2 08161 101.2098 235.8924 0377406  83.1817  41.8224 11.99585477592415
Epoch: 2026-07-26T14:23Z
TLE epoch observation values (Epoch: 2026-07-26T14:23:59.887Z)
Latitude
50.72428°
Longitude
-90.44856°
Altitude
1,469.19 km
Speed
7.23 km/s
True Right ascension
04h 39m 23s
True Declination
50° 34' 15"
Sunlit
Object was in daylight at epoch
Visualization orbit readout
Latitude
Unknown
Longitude
Unknown
Altitude
Unknown
Speed
Unknown
Apparent Right ascension
Unknown
Apparent Declination
Unknown
Sunlit
N/A
Visualization observer readout
Local Sidereal Time
19:19:29
Azimuth
Unknown
Elevation
Unknown
Doppler factor
Unknown
Orbital elements
Apogee altitude
1,984.425 km
Perigee altitude
1,376.165 km
Semi-major axis
8,058.432 km
Eccentricity
0.03774
Inclination
101.2098°
RAAN
235.8924°
Arg. of periapsis
83.1817°
True anomaly
44.80981°
Mean anomaly
41.8224°
Eccentric anomaly
43.30555°
Mean motion
3.00032 °/min
Orbital period
119.99 mins
BSTAR
0.0065899
Loading maneuver chart data...
Computing Atmospheric mass density...

Documentation

Showing up to 5 results
|